Location: Arborea
(39.7744°N, 8.5819°E)
Time: 22:07:05
(UTC+00:00)

SL-08 RB Rocket - Pass Details

Date: 24 October 2021
Orbit: 646 x 684 km, 97.8° (Epoch: 06 December)

Event Time Altitude Azimuth Distance (km) Brightness Sun altitude
Rises 18:09:50 0° 167° (SSE) 2,975 6.9 -19.1°
Reaches altitude 10° 18:12:02 10° 168° (SSE) 2,073 6.1 -19.6°
Maximum altitude 18:16:34 85° 257° (WSW) 676 3.7 -20.4°
Drops below altitude 10° 18:21:12 10° 347° (NNW) 2,113 6.5 -21.3°
Sets 18:23:27 0° 348° (NNW) 3,037 7.3 -21.8°
